Location: Bittkow
(50.3000°N, 19.0000°E)
Time: 22:08:06
(UTC+00:00)

USA 267 - Pass Details

Date: 19 September 2020
Orbit: 1101 x 1106 km, 123.0° (Epoch: 22 September)

Event Time Altitude Azimuth Distance (km) Brightness Sun altitude
Rises 00:45:58 0° 57° (ENE) 3,926 7.2 -31.5°
Reaches altitude 10° 00:48:34 10° 63° (ENE) 2,966 6.3 -31.3°
Maximum altitude 00:54:53 49° 137° (SE) 1,402 3.7 -30.6°
Enters shadow 00:54:57 49° 139° (SE) 1,402 3.6 -30.6°
